[[{"header":{"parameterUnit":"m.s-1","parameterCategory":1,"la1":30.2991,"la2":30.254,"lo1":-89.0895,"lo2":-89.0444,"dy":0.0017,"dx":0.0017,"nx":28,"ny":28,"refTime":"2023-08-10T03:00:00:Z","depth":0,"parameterNumber":2,"parameterNumberName":"U-component_of_WINDS"},"data":[0,0,0,0,0,0,0,0,0,0,0,0,0,0,0,0,0,0,0,0,0,0,0,0,0,0,0,0,0,0,0,0,0,0,0,0,0,0,0,0,0,0,0,0,0,0,0,0,0,0,0,0,0,0,0,0,0,0,5.2705,5.2707,0,5.2877,5.2879,5.2881,5.2833,5.283,5.2826,5.2823,5.3,5.3008,5.3016,0,0,0,0,0,0,0,0,0,0,0,0,0,5.2333,5.234,5.2705,5.2707,5.2709,5.2877,5.2879,5.2881,5.2834,5.283,5.2826,5.2822,5.2998,5.3007,5.3017,0,0,0,0,0,0,0,0,0,0,0,0,0,5.2499,5.2342,5.2704,5.2706,5.2707,5.2876,5.2879,5.2882,5.2835,5.283,5.2824,5.282,5.2995,5.3006,5.3018,5.3196,0,0,5.3054,5.306,0,0,0,0,0,0,0,0,5.2489,5.2512,5.2703,5.2706,5.2708,5.2828,5.2813,5.2988,5.2836,5.2787,5.2823,5.2817,5.2947,5.2963,5.3007,5.3205,5.3212,5.3056,5.3063,5.3068,5.3071,0,0,0,0,0,0,0,5.2478,5.2505,5.2773,5.2706,5.2709,5.2697,5.2715,5.2846,5.2894,5.279,5.2787,5.2808,5.2948,5.2995,5.301,5.3215,5.3055,5.3066,5.3073,5.3078,5.3563,5.3568,0,0,0,0,0,0,5.2465,5.2495,5.2767,5.2778,5.2583,5.2708,5.2728,5.2795,5.2893,5.2902,5.2813,5.2806,5.2977,5.2997,5.3017,5.3228,5.3068,5.3079,5.3086,5.3557,5.3564,5.357,0,0,0,0,0,0,5.2457,5.2489,5.276,5.2636,5.2669,5.272,5.2796,5.2801,5.2849,5.2909,5.2918,5.2852,5.2974,5.3,5.3151,5.3234,5.3084,5.3095,5.3551,5.3559,5.3567,5.3655,0,0,0,0,0,0,5.2446,5.2487,5.2556,5.2638,5.2676,5.2893,5.2801,5.2808,5.2869,5.2862,5.2949,5.2958,5.2972,5.3133,5.3163,5.3247,5.3105,5.3543,5.3554,5.3565,5.3645,5.3665,5.3683,0,0,0,0,0,5.2433,5.2575,5.256,5.2593,5.2764,5.2898,5.292,5.2932,5.2876,5.2945,5.2984,5.2956,5.322,5.3149,5.3182,5.3271,5.3538,5.3551,5.3564,5.3636,5.3661,5.3683,0,0,0,0,0,0,5.2502,5.2586,5.257,5.2742,5.2813,5.2889,5.2977,5.2959,5.3048,5.3037,5.3049,5.3069,5.3222,5.3263,5.3182,5.3447,5.3371,5.3391,5.3415,5.3439,5.3458,5.3444,5.3115,0,0,0,0,0,5.2538,5.264,5.2707,5.2853,5.2889,5.2927,5.2986,5.2989,5.3063,5.3093,5.3143,5.3215,5.3314,5.3379,5.3474,5.3651,5.3667,5.3729,5.3748,5.3763,5.3779,5.3871,5.3898,5.3613,5.3613,5.3612,0,0,5.2612,5.267,5.2734,5.2868,5.2923,5.3027,5.2953,5.3067,5.3144,5.3111,5.3255,5.3294,5.3376,5.3539,5.3614,5.3577,5.3862,5.3779,5.3791,5.3799,5.3887,5.3914,5.3938,5.3621,5.362,5.3618,0,0,5.2799,5.2855,5.298,5.3036,5.312,5.3144,5.3174,5.3253,5.3277,5.3422,5.3398,5.3489,5.3661,5.3719,5.3771,5.3976,5.3952,5.4007,5.4106,5.4196,5.4218,5.4238,5.4307,5.4333,5.4024,5.4024,5.4024,0,5.288,5.3036,5.3047,5.3162,5.322,5.3194,5.3319,5.3374,5.3485,5.3525,5.3483,5.3694,5.3748,5.3922,5.3972,5.4017,5.4049,5.3996,5.4214,5.4234,5.4253,5.4319,5.4346,5.403,5.4029,5.4029,5.4028,0,5.313,5.3239,5.333,5.3435,5.3504,5.3625,5.3652,5.372,5.3717,5.3744,5.3891,5.3954,5.4059,5.4101,5.41,5.4274,5.4248,5.4211,5.4134,5.4286,5.4348,5.4374,5.4038,5.4036,5.4034,5.4033,0,0,5.3366,5.3474,5.3507,5.3553,5.3642,5.3726,5.3844,5.3945,5.4002,5.4079,5.4176,5.432,5.4284,5.4343,5.4348,5.4427,5.4581,5.4379,5.4381,5.4411,5.4772,5.4797,5.4827,5.4566,5.4571,5.4575,5.4764,0,5.3558,5.3765,5.3776,5.3963,5.4061,5.4036,5.4138,5.4203,5.4232,5.4318,5.435,5.445,5.4398,5.4432,5.4509,5.4546,5.4653,5.4533,5.4654,5.4658,5.4631,5.486,5.4889,5.5064,5.4789,5.4793,5.4796,0,5.381,5.3892,5.4088,5.416,5.4201,5.4293,5.4385,5.4469,5.4541,5.4556,5.462,5.4613,5.4732,5.4653,5.4814,5.4732,5.4783,5.4808,5.4815,5.4824,5.4734,5.4872,5.512,5.5145,5.4835,5.4832,5.4829,0,5.3957,5.4118,5.4254,5.4295,5.4383,5.4447,5.4487,5.4554,5.4613,5.4694,5.4731,5.4826,5.4876,5.4949,5.4966,5.4908,5.5126,5.505,5.514,5.5139,5.5185,5.5181,5.5441,5.5224,5.5223,5.5223,5.5222,0,5.4169,5.4289,5.4321,5.4405,5.4538,5.4549,5.468,5.4715,5.4775,5.4863,5.4849,5.4933,5.4952,5.5039,5.5054,5.5183,5.5208,5.5221,5.5223,5.5221,5.5219,5.5252,5.5239,5.523,5.5228,5.5227,5.5225,0,5.4355,5.4382,5.4529,5.4599,5.4619,5.4714,5.4773,5.4853,5.4879,5.4991,5.5018,5.5059,5.516,5.5185,5.5308,5.5317,5.5468,5.5461,5.5444,5.5442,5.5529,5.5519,5.5816,5.5854,5.5616,5.5618,5.562,0,5.4487,5.4578,5.4657,5.4715,5.4757,5.4851,5.491,5.4925,5.4987,5.5074,5.5142,5.5242,5.5322,5.5485,5.5525,5.5617,5.5609,5.5706,5.5622,5.5615,5.5605,5.5598,5.5605,5.5721,5.5724,5.5726,5.5728,0,5.4716,5.4724,5.481,5.49,5.497,5.5042,5.5111,5.5159,5.5183,5.5253,5.5356,5.5418,5.554,5.5638,5.573,5.5769,5.5752,5.5754,5.5779,5.5776,5.576,5.5766,5.5483,5.5747,5.5745,5.5743,5.5742,5.5742,5.4876,5.4954,5.5021,5.5116,5.5169,5.5232,5.5309,5.5343,5.5429,5.5529,5.5532,5.5643,5.571,5.5831,5.5876,5.5962,5.5932,5.5969,5.5978,5.5986,5.5991,5.5749,5.5979,5.5979,5.5978,5.5978,5.5977,0,5.5101,5.5142,5.5229,5.5324,5.5398,5.5375,5.5449,5.5512,5.5609,5.5673,5.5751,5.5867,5.5961,5.6007,5.61,5.6159,5.6153,5.6183,5.6177,5.6185,5.6015,5.5982,5.6186,5.6186,5.6186,5.6186,5.6186,5.6186,5.5226,5.5355,5.5371,5.5525,5.5565,5.5673,5.5716,5.5774,5.5824,5.5953,5.6031,5.606,5.6116,5.6212,5.6296,5.6307,5.634,5.6373,5.638,5.6219,5.6198,5.6178,5.6147,5.6381,5.6382,5.6542,5.6544,5.6545]},{"header":{"parameterUnit":"m.s-1","parameterCategory":1,"la1":30.2991,"la2":30.254,"lo1":-89.0895,"lo2":-89.0444,"dy":0.0017,"dx":0.0017,"nx":28,"ny":28,"refTime":"2023-08-10T03:00:00:Z","depth":0,"parameterNumber":3,"parameterNumberName":"V-component_of_WINDS"},"data":[0,0,0,0,0,0,0,0,0,0,0,0,0,0,0,0,0,0,0,0,0,0,0,0,0,0,0,0,0,0,0,0,0,0,0,0,0,0,0,0,0,0,0,0,0,0,0,0,0,0,0,0,0,0,0,0,0,0,2.0735,2.0735,0,2.0787,2.0787,2.0788,2.0768,2.0766,2.0765,2.0764,2.0816,2.0818,2.0821,0,0,0,0,0,0,0,0,0,0,0,0,0,2.0615,2.0617,2.0734,2.0735,2.0736,2.0787,2.0787,2.0788,2.0768,2.0766,2.0765,2.0763,2.0815,2.0818,2.0821,0,0,0,0,0,0,0,0,0,0,0,0,0,2.0667,2.0618,2.0734,2.0732,2.0732,2.0786,2.0787,2.0788,2.0768,2.0766,2.0764,2.0763,2.0814,2.0818,2.0821,2.0881,0,0,2.0833,2.0835,0,0,0,0,0,0,0,0,2.0664,2.0671,2.0732,2.0732,2.0733,2.0769,2.0764,2.0819,2.0769,2.0754,2.0764,2.0762,2.0802,2.0806,2.082,2.0883,2.0885,2.0833,2.0835,2.0837,2.0838,0,0,0,0,0,0,0,2.066,2.0669,2.0755,2.0732,2.0733,2.0727,2.0733,2.0774,2.0787,2.0755,2.0754,2.0761,2.0801,2.0816,2.0821,2.0886,2.0833,2.0836,2.0839,2.084,2.0999,2.1001,0,0,0,0,0,0,2.0657,2.0666,2.0753,2.0757,2.0693,2.0731,2.0737,2.0759,2.0787,2.0789,2.0762,2.076,2.0811,2.0817,2.0823,2.0893,2.0837,2.0841,2.0843,2.0997,2.0999,2.1001,0,0,0,0,0,0,2.0654,2.0665,2.0751,2.0711,2.0722,2.0735,2.076,2.0761,2.0776,2.0792,2.0794,2.0775,2.081,2.0817,2.0866,2.0895,2.0842,2.0846,2.0995,2.0998,2.1,2.1035,0,0,0,0,0,0,2.0651,2.0664,2.0688,2.0712,2.0724,2.0795,2.0762,2.0763,2.0783,2.078,2.0805,2.0807,2.0809,2.0861,2.087,2.0899,2.0849,2.0992,2.0996,2.0999,2.1031,2.1039,2.1045,0,0,0,0,0,2.0647,2.0695,2.0689,2.0699,2.0753,2.0797,2.0803,2.0805,2.0785,2.0808,2.0818,2.0806,2.089,2.0866,2.0876,2.0907,2.099,2.0995,2.0999,2.1028,2.1037,2.1045,0,0,0,0,0,0,2.0674,2.0698,2.0692,2.0749,2.0771,2.0793,2.0822,2.0815,2.0842,2.0838,2.0838,2.0844,2.0894,2.0905,2.0878,2.0964,2.0937,2.0944,2.0956,2.0964,2.0971,2.0967,2.0852,0,0,0,0,0,2.0686,2.072,2.0739,2.0788,2.08,2.0809,2.0828,2.0827,2.0849,2.0858,2.0872,2.0894,2.0924,2.0945,2.0974,2.1033,2.1037,2.1058,2.1065,2.1071,2.1076,2.1106,2.1116,2.1016,2.1016,2.1016,0,0,2.0713,2.0731,2.0752,2.0794,2.0811,2.0845,2.0817,2.0854,2.0879,2.0864,2.0911,2.0921,2.0945,2.0999,2.1023,2.1009,2.1105,2.1076,2.1081,2.1083,2.1112,2.1121,2.113,2.1019,2.1018,2.1018,0,0,2.0779,2.0796,2.0838,2.0855,2.0881,2.0886,2.0896,2.092,2.0926,2.0973,2.0962,2.0991,2.1045,2.1062,2.1077,2.1148,2.1137,2.1157,2.1193,2.1222,2.123,2.1237,2.1261,2.127,2.1163,2.1163,2.1163,0,2.0808,2.086,2.086,2.0898,2.0917,2.0904,2.0946,2.0963,2.0997,2.1009,2.0994,2.106,2.1075,2.1132,2.1149,2.1162,2.1173,2.1154,2.1229,2.1236,2.1243,2.1265,2.1275,2.1165,2.1165,2.1165,2.1165,0,2.0894,2.093,2.096,2.0993,2.1015,2.1055,2.1061,2.1083,2.108,2.1087,2.1134,2.1151,2.1184,2.1197,2.1194,2.1253,2.1244,2.1229,2.1201,2.1254,2.1276,2.1285,2.1168,2.1168,2.1167,2.1166,0,0,2.0979,2.1011,2.1022,2.1036,2.1063,2.109,2.1129,2.1161,2.1179,2.1202,2.1234,2.1279,2.1265,2.1282,2.1281,2.1307,2.136,2.1289,2.129,2.1301,2.1424,2.1435,2.1445,2.1354,2.1355,2.1357,2.1422,0,2.1046,2.1114,2.1115,2.1178,2.121,2.1198,2.1231,2.125,2.1258,2.1285,2.1293,2.1325,2.1304,2.1315,2.134,2.1349,2.1385,2.1344,2.1382,2.1383,2.1376,2.1457,2.1468,2.1529,2.1431,2.1432,2.1433,0,2.1133,2.1159,2.1225,2.1246,2.1259,2.1289,2.1318,2.1345,2.1366,2.1369,2.1388,2.1383,2.1421,2.1392,2.1444,2.1416,2.1431,2.1438,2.144,2.1444,2.1411,2.1461,2.1549,2.1557,2.1446,2.1445,2.1444,0,2.1187,2.1239,2.1284,2.1297,2.1323,2.1344,2.1355,2.1375,2.1393,2.1418,2.143,2.1458,2.1474,2.1495,2.1497,2.1477,2.1549,2.1521,2.1552,2.1552,2.1568,2.1566,2.1658,2.1579,2.1578,2.1578,2.1578,0,2.1262,2.1302,2.1309,2.1337,2.1381,2.1381,2.1425,2.1434,2.1452,2.148,2.1472,2.1499,2.15,2.1527,2.1529,2.1571,2.1578,2.1581,2.1581,2.1582,2.1581,2.1591,2.1587,2.1581,2.158,2.158,2.1579,0,2.1329,2.1336,2.1384,2.1404,2.141,2.1442,2.1459,2.1485,2.1491,2.1527,2.1536,2.1545,2.1577,2.1581,2.1618,2.1619,2.1669,2.1665,2.1662,2.1661,2.1692,2.1688,2.1792,2.1805,2.1718,2.1719,2.172,0,2.1376,2.1407,2.143,2.1449,2.1462,2.1492,2.1511,2.1512,2.1532,2.1557,2.158,2.1611,2.1635,2.1686,2.1696,2.1723,2.1719,2.1754,2.1723,2.1723,2.1719,2.1717,2.1719,2.176,2.176,2.1761,2.1762,0,2.1458,2.1459,2.1487,2.1516,2.1538,2.1561,2.1582,2.1598,2.1601,2.1623,2.1656,2.1675,2.1712,2.1742,2.177,2.178,2.1771,2.1771,2.178,2.1781,2.1777,2.1778,2.1677,2.1769,2.1768,2.1768,2.1767,2.1767,2.1516,2.1542,2.1562,2.1593,2.1609,2.1629,2.1654,2.1663,2.169,2.1721,2.172,2.1755,2.1774,2.1809,2.1822,2.1849,2.1837,2.185,2.1853,2.1856,2.1859,2.1774,2.1854,2.1854,2.1853,2.1853,2.1853,0,2.1597,2.1609,2.1637,2.1667,2.1691,2.1681,2.1703,2.1723,2.1755,2.1773,2.1798,2.1834,2.1863,2.1874,2.1902,2.1921,2.1918,2.1929,2.1927,2.1929,2.1868,2.1857,2.1931,2.1931,2.1931,2.1931,2.1931,2.1931,2.1641,2.1685,2.1688,2.1739,2.1751,2.1785,2.1799,2.1816,2.1831,2.1872,2.1896,2.1904,2.1919,2.1948,2.1974,2.1976,2.1986,2.1999,2.1999,2.1942,2.1934,2.1926,2.1916,2.2001,2.2001,2.2059,2.2059,2.206]}]]